,,Stat5,,Stat1,,Stat2,,Stat3,,Stat4,,Wind1,,Wind1,
time,status,PA1M_AVG,status,PR1M_SUM,status,RH1M_AVG,status,SR1M_AVG,status,TA1M_AVG,status,W1dAve1m,status,W1sAve1m,
2000-08-18, 00:00:00,VALID,918.333,VALID,0,VALID,97.1404,VALID,-0.0339617,VALID,18.281,VALID,265,VALID,0,
2000-08-18, 00:01:00,VALID,918.355,VALID,0,VALID,97.3998,VALID,-0.0339617,VALID,18.2904,VALID,265,VALID,0,
2000-08-18, 00:02:00,VALID,918.37,VALID,0,VALID,97.4583,VALID,-0.0509425,VALID,18.2549,VALID,265,VALID,0,
2000-08-18, 00:03:00,VALID,918.388,VALID,0,VALID,97.3769,VALID,-0.0169808,VALID,18.2258,VALID,163,VALID,0.0576923,
2000-08-18, 00:04:00,VALID,918.41,VALID,0,VALID,97.5639,VALID,-0.0339617,VALID,18.2228,VALID,90,VALID,0.550987,
2000-08-18, 00:05:00,VALID,918.431,VALID,0,VALID,97.8767,VALID,-0.0169808,VALID,18.239,VALID,91,VALID,0.652961,
2000-08-18, 00:06:00,VALID,918.424,VALID,0,VALID,98.22,VALID,-0.0169808,VALID,18.2937,VALID,93,VALID,0.591947,
2000-08-18, 00:07:00,VALID,918.427,VALID,0,VALID,98.4731,VALID,-0.0169808,VALID,18.3555,VALID,93,VALID,0.447461,
2000-08-18, 00:08:00,VALID,918.424,VALID,0,VALID,98.6015,VALID,-0.0169808,VALID,18.4003,VALID,93,VALID,0.0958615,
2000-08-18, 00:09:00,VALID,918.422,VALID,0,VALID,98.6511,VALID,0,VALID,18.4224,VALID,93,VALID,0,
2000-08-18, 00:10:00,VALID,918.421,VALID,0,VALID,98.6574,VALID,-0.0169808,VALID,18.4686,VALID,93,VALID,0,
2000-08-18, 00:11:00,VALID,918.408,VALID,0,VALID,98.6447,VALID,-0.0339617,VALID,18.4845,VALID,93,VALID,0,
2000-08-18, 00:12:00,VALID,918.397,VALID,0,VALID,98.5964,VALID,0,VALID,18.5071,VALID,93,VALID,0,
2000-08-18, 00:13:00,VALID,918.365,VALID,0,VALID,98.5074,VALID,-0.0509425,VALID,18.5071,VALID,93,VALID,0,
2000-08-18, 00:14:00,VALID,918.342,VALID,0,VALID,98.4336,VALID,-0.0509425,VALID,18.5135,VALID,93,VALID,0,
2000-08-18, 00:15:00,VALID,918.318,VALID,0,VALID,98.3726,VALID,-0.0169808,VALID,18.5195,VALID,93,VALID,0,
2000-08-18, 00:16:00,VALID,918.294,VALID,0,VALID,98.2874,VALID,-0.0339617,VALID,18.5265,VALID,93,VALID,0,
2000-08-18, 00:17:00,VALID,918.278,VALID,0,VALID,98.3319,VALID,-0.0509425,VALID,18.5394,VALID,93,VALID,0,
2000-08-18, 00:18:00,VALID,918.262,VALID,0,VALID,98.3739,VALID,-0.0169808,VALID,18.5588,VALID,94,VALID,0,
2000-08-18, 00:19:00,VALID,918.272,VALID,0,VALID,98.4108,VALID,-0.0339617,VALID,18.5841,VALID,93,VALID,0,
2000-08-18, 00:20:00,VALID,918.29,VALID,0,VALID,98.4324,VALID,-0.0339617,VALID,18.607,VALID,94,VALID,0,
2000-08-18, 00:21:01,VALID,918.303,VALID,0,VALID,98.3904,VALID,-0.0339617,VALID,18.6104,VALID,93,VALID,0,
2000-08-18, 00:22:00,VALID,918.308,VALID,0,VALID,98.1755,VALID,-0.0169808,VALID,18.5848,VALID,94,VALID,0,
2000-08-18, 00:23:00,VALID,918.305,VALID,0,VALID,98.0178,VALID,0,VALID,18.5553,VALID,94,VALID,0,
2000-08-18, 00:24:00,VALID,918.28,VALID,0,VALID,97.9136,VALID,-0.0169808,VALID,18.5426,VALID,93,VALID,0,
2000-08-18, 00:25:00,VALID,918.255,VALID,0,VALID,97.7813,VALID,-0.0169808,VALID,18.5325,VALID,94,VALID,0,
2000-08-18, 00:26:00,VALID,918.21,VALID,0,VALID,97.6732,VALID,-0.0339617,VALID,18.5131,VALID,94,VALID,0,
2000-08-18, 00:27:00,VALID,918.161,VALID,0,VALID,97.4558,VALID,-0.0169808,VALID,18.5071,VALID,93,VALID,0,
2000-08-18, 00:28:00,VALID,918.129,VALID,0,VALID,97.2498,VALID,0.0509425,VALID,18.4609,VALID,93,VALID,0,
2000-08-18, 00:29:00,VALID,918.103,VALID,0,VALID,97.2447,VALID,0.0339617,VALID,18.448,VALID,93,VALID,0,
2000-08-18, 00:30:00,VALID,918.088,VALID,0,VALID,97.335,VALID,0.0169808,VALID,18.4215,VALID,94,VALID,0,
2000-08-18, 00:31:00,VALID,918.081,VALID,0,VALID,97.6834,VALID,0.0169808,VALID,18.4445,VALID,93,VALID,0,
2000-08-18, 00:32:00,VALID,918.078,VALID,0,VALID,98.0038,VALID,0.0169808,VALID,18.4637,VALID,103,VALID,0,
2000-08-18, 00:33:00,VALID,918.089,VALID,0,VALID,98.1539,VALID,0.0169808,VALID,18.4801,VALID,116,VALID,0,
2000-08-18, 00:34:00,VALID,918.077,VALID,0,VALID,98.1501,VALID,0.0509425,VALID,18.4669,VALID,116,VALID,0,
2000-08-18, 00:35:00,VALID,918.068,VALID,0,VALID,98.1653,VALID,0.0169808,VALID,18.4704,VALID,116,VALID,0,
2000-08-18, 00:36:00,VALID,918.048,VALID,0,VALID,98.1246,VALID,0.0509425,VALID,18.4575,VALID,116,VALID,0,
2000-08-18, 00:37:00,VALID,918.052,VALID,0,VALID,98.0763,VALID,0.0849042,VALID,18.4508,VALID,116,VALID,0,
2000-08-18, 00:38:00,VALID,918.037,VALID,0,VALID,97.9288,VALID,0.0339617,VALID,18.4249,VALID,116,VALID,0,
2000-08-18, 00:39:00,VALID,918.014,VALID,0,VALID,97.7813,VALID,0.0339617,VALID,18.3959,VALID,116,VALID,0,
2000-08-18, 00:40:00,VALID,917.995,VALID,0,VALID,97.7254,VALID,0.0509425,VALID,18.3896,VALID,116,VALID,0,
2000-08-18, 00:41:00,VALID,917.979,VALID,0,VALID,97.2002,VALID,0.0339617,VALID,18.3059,VALID,116,VALID,0,
2000-08-18, 00:42:00,VALID,917.979,VALID,0,VALID,97.1252,VALID,0.0169808,VALID,18.2508,VALID,104,VALID,0,
2000-08-18, 00:43:00,VALID,917.954,VALID,0,VALID,97.2854,VALID,-0.0339617,VALID,18.2256,VALID,100,VALID,0.32348,
2000-08-18, 00:44:00,VALID,917.952,VALID,0,VALID,97.4189,VALID,-0.0169808,VALID,18.1975,VALID,100,VALID,0.55193,
2000-08-18, 00:45:00,VALID,917.943,VALID,0,VALID,97.5181,VALID,-0.0849042,VALID,18.1617,VALID,98,VALID,0.582589,
2000-08-18, 00:46:00,VALID,917.932,VALID,0,VALID,97.6783,VALID,-0.101885,VALID,18.1619,VALID,96,VALID,0.57512,
2000-08-18, 00:47:00,VALID,917.936,VALID,0,VALID,97.7902,VALID,-0.0339617,VALID,18.1356,VALID,96,VALID,0.572213,
2000-08-18, 00:48:00,VALID,917.944,VALID,0,VALID,97.9123,VALID,-0.0339617,VALID,18.146,VALID,97,VALID,0.629317,
2000-08-18, 00:49:00,VALID,917.947,VALID,0,VALID,98.1475,VALID,-0.0679233,VALID,18.1451,VALID,97,VALID,0.640625,
2000-08-18, 00:50:00,VALID,917.942,VALID,0,VALID,98.4629,VALID,-0.0679233,VALID,18.1968,VALID,100,VALID,0.663662,
2000-08-18, 00:51:00,VALID,917.951,VALID,0,VALID,98.6028,VALID,-0.0509425,VALID,18.2588,VALID,98,VALID,0.566051,
2000-08-18, 00:52:00,VALID,917.952,VALID,0,VALID,98.7261,VALID,-0.0339617,VALID,18.3038,VALID,89,VALID,0.623481,
2000-08-18, 00:53:00,VALID,917.942,VALID,0,VALID,98.6841,VALID,-0.0339617,VALID,18.307,VALID,87,VALID,0.575863,
2000-08-18, 00:54:00,VALID,917.932,VALID,0,VALID,98.632,VALID,-0.0849042,VALID,18.2874,VALID,92,VALID,0.734575,
2000-08-18, 00:55:00,VALID,917.943,VALID,0,VALID,98.6752,VALID,-0.0849042,VALID,18.3202,VALID,90,VALID,1.00137,
2000-08-18, 00:56:00,VALID,917.925,VALID,0,VALID,98.721,VALID,-0.0339617,VALID,18.3458,VALID,92,VALID,0.849107,
2000-08-18, 00:57:00,VALID,917.921,VALID,0,VALID,98.6613,VALID,-0.0169808,VALID,18.3396,VALID,92,VALID,0.738176,
2000-08-18, 00:58:00,VALID,917.901,VALID,0,VALID,98.6346,VALID,0.0169808,VALID,18.319,VALID,92,VALID,0.70795,
2000-08-18, 00:59:00,VALID,917.896,VALID,0,VALID,98.6155,VALID,0.0509425,VALID,18.3218,VALID,83,VALID,0.739955,
2000-08-18, 01:00:00,VALID,917.885,VALID,0,VALID,98.6574,VALID,0.0679233,VALID,18.3382,VALID,88,VALID,0.712377,
2000-08-18, 01:01:00,VALID,917.883,VALID,0,VALID,98.6282,VALID,0.0679233,VALID,18.3317,VALID,88,VALID,0.644848,
2000-08-18, 01:02:00,VALID,917.9,VALID,0,VALID,98.5939,VALID,0.0509425,VALID,18.3186,VALID,83,VALID,0.470189,
2000-08-18, 01:03:00,VALID,917.897,VALID,0,VALID,98.4858,VALID,0.0509425,VALID,18.2831,VALID,83,VALID,0.378571,
2000-08-18, 01:04:00,VALID,917.903,VALID,0,VALID,98.5773,VALID,0.0679233,VALID,18.3156,VALID,83,VALID,0,
2000-08-18, 01:05:00,VALID,917.892,VALID,0,VALID,98.6104,VALID,0.0339617,VALID,18.3285,VALID,104,VALID,0,
2000-08-18, 01:06:00,VALID,917.896,VALID,0,VALID,98.6104,VALID,0.0339617,VALID,18.3218,VALID,95,VALID,0.516927,
2000-08-18, 01:07:00,VALID,917.893,VALID,0,VALID,98.6752,VALID,0.0169808,VALID,18.3573,VALID,96,VALID,0.672081,
2000-08-18, 01:08:01,VALID,917.899,VALID,0,VALID,98.571,VALID,0.0679233,VALID,18.3477,VALID,100,VALID,0.591747,
2000-08-18, 01:09:00,VALID,917.91,VALID,0,VALID,98.5023,VALID,0.0679233,VALID,18.3444,VALID,103,VALID,0.191992,
2000-08-18, 01:10:00,VALID,917.917,VALID,0,VALID,98.5519,VALID,0,VALID,18.3606,VALID,101,VALID,0.320089,
2000-08-18, 01:11:00,VALID,917.929,VALID,0,VALID,98.4425,VALID,0.0509425,VALID,18.3444,VALID,101,VALID,0.353041,
2000-08-18, 01:12:00,VALID,917.935,VALID,0,VALID,98.3662,VALID,0.0679233,VALID,18.338,VALID,100,VALID,0.255974,
2000-08-18, 01:13:00,VALID,917.929,VALID,0,VALID,98.5595,VALID,0.0169808,VALID,18.409,VALID,89,VALID,0.258482,
2000-08-18, 01:14:00,VALID,917.919,VALID,0,VALID,98.585,VALID,0.0509425,VALID,18.418,VALID,94,VALID,0,
2000-08-18, 01:15:00,VALID,917.898,VALID,0,VALID,98.6244,VALID,0.0679233,VALID,18.4545,VALID,87,VALID,0,
2000-08-18, 01:16:01,VALID,917.874,VALID,0,VALID,98.5303,VALID,0.0509425,VALID,18.4346,VALID,89,VALID,0,
2000-08-18, 01:17:00,VALID,917.866,VALID,0,VALID,98.6028,VALID,0.0509425,VALID,18.457,VALID,89,VALID,0,
2000-08-18, 01:18:00,VALID,917.851,VALID,0,VALID,98.6816,VALID,0.0509425,VALID,18.5057,VALID,89,VALID,0,
2000-08-18, 01:19:00,VALID,917.859,VALID,0,VALID,98.6256,VALID,0.0679233,VALID,18.5188,VALID,89,VALID,0,
2000-08-18, 01:20:00,VALID,917.889,VALID,0,VALID,98.5099,VALID,0.0849042,VALID,18.4995,VALID,92,VALID,0,
2000-08-18, 01:21:00,VALID,917.901,VALID,0,VALID,98.2289,VALID,0.0509425,VALID,18.4734,VALID,156,VALID,0,
2000-08-18, 01:22:00,VALID,917.908,VALID,0,VALID,97.8881,VALID,0.0339617,VALID,18.4086,VALID,199,VALID,0,
2000-08-18, 01:23:00,VALID,917.919,VALID,0,VALID,97.7927,VALID,0.0679233,VALID,18.3991,VALID,197,VALID,0,
2000-08-18, 01:24:00,VALID,917.911,VALID,0,VALID,98.042,VALID,0.0849042,VALID,18.4215,VALID,143,VALID,0.0131696,
2000-08-18, 01:25:00,VALID,917.906,VALID,0,VALID,98.1246,VALID,0.0509425,VALID,18.4445,VALID,108,VALID,0.461782,
2000-08-18, 01:26:00,VALID,917.892,VALID,0,VALID,97.9021,VALID,0.0679233,VALID,18.4093,VALID,96,VALID,0.730699,
2000-08-18, 01:27:00,VALID,917.873,VALID,0,VALID,97.8462,VALID,0.0339617,VALID,18.3829,VALID,84,VALID,1.10826,
2000-08-18, 01:28:00,VALID,917.86,VALID,0,VALID,98.44,VALID,0.0169808,VALID,18.4937,VALID,81,VALID,0.742989,
2000-08-18, 01:29:00,VALID,917.818,VALID,0,VALID,98.4018,VALID,-0.0509425,VALID,18.4812,VALID,78,VALID,0.840794,
2000-08-18, 01:30:00,VALID,917.77,VALID,0,VALID,98.632,VALID,-0.0339617,VALID,18.5558,VALID,76,VALID,1.11801,
2000-08-18, 01:31:00,VALID,917.733,VALID,0,VALID,98.8024,VALID,-0.0169808,VALID,18.6361,VALID,78,VALID,1.26161,
2000-08-18, 01:32:00,VALID,917.684,VALID,0,VALID,98.7732,VALID,-0.0509425,VALID,18.6755,VALID,86,VALID,0.955729,
2000-08-18, 01:33:00,VALID,917.646,VALID,0,VALID,98.6091,VALID,-0.0339617,VALID,18.6522,VALID,84,VALID,1.22112,
2000-08-18, 01:34:00,VALID,917.622,VALID,0,VALID,98.5697,VALID,-0.0169808,VALID,18.6621,VALID,72,VALID,1.04883,
2000-08-18, 01:35:00,VALID,917.591,VALID,0,VALID,98.6269,VALID,-0.0339617,VALID,18.724,VALID,83,VALID,1.00596,
2000-08-18, 01:36:00,VALID,917.573,VALID,0,VALID,98.5786,VALID,-0.0339617,VALID,18.7198,VALID,74,VALID,0.891627,
2000-08-18, 01:37:00,VALID,917.551,VALID,0,VALID,98.5176,VALID,-0.0169808,VALID,18.7332,VALID,84,VALID,0.678711,
2000-08-18, 01:38:00,VALID,917.524,VALID,0,VALID,98.4527,VALID,-0.0169808,VALID,18.7064,VALID,90,VALID,0.974107,
2000-08-18, 01:39:01,VALID,917.507,VALID,0,VALID,98.4832,VALID,-0.0169808,VALID,18.7528,VALID,85,VALID,1.27851,
2000-08-18, 01:40:00,VALID,917.498,VALID,0,VALID,98.4375,VALID,-0.0509425,VALID,18.7357,VALID,89,VALID,1.25092,
2000-08-18, 01:41:00,VALID,917.497,VALID,0,VALID,98.3675,VALID,-0.0169808,VALID,18.7198,VALID,85,VALID,0.923661,
2000-08-18, 01:42:00,VALID,917.512,VALID,0,VALID,98.3523,VALID,-0.0509425,VALID,18.72,VALID,68,VALID,0.916066,
2000-08-18, 01:43:00,VALID,917.515,VALID,0,VALID,98.3077,VALID,0.0339617,VALID,18.7034,VALID,82,VALID,0.60853,
2000-08-18, 01:44:00,VALID,917.52,VALID,0,VALID,98.3128,VALID,0.0339617,VALID,18.6796,VALID,101,VALID,0.452508,
2000-08-18, 01:45:00,VALID,917.534,VALID,0,VALID,98.2556,VALID,0.0849042,VALID,18.6736,VALID,90,VALID,0.606473,
2000-08-18, 01:46:00,VALID,917.532,VALID,0,VALID,98.276,VALID,0.0679233,VALID,18.6739,VALID,81,VALID,0.553686,
2000-08-18, 01:47:00,VALID,917.517,VALID,0,VALID,98.3408,VALID,0.0849042,VALID,18.6603,VALID,80,VALID,0.405777,
2000-08-18, 01:48:00,VALID,917.524,VALID,0,VALID,98.3815,VALID,0.0339617,VALID,18.664,VALID,82,VALID,0.519748,
2000-08-18, 01:49:00,VALID,917.504,VALID,0,VALID,98.3751,VALID,0.0679233,VALID,18.6603,VALID,82,VALID,0.455387,
2000-08-18, 01:50:01,VALID,917.5,VALID,0,VALID,98.3039,VALID,0.0339617,VALID,18.6381,VALID,72,VALID,0.580329,
2000-08-18, 01:51:00,VALID,917.475,VALID,0,VALID,98.4209,VALID,0.0339617,VALID,18.6607,VALID,84,VALID,0.683789,
2000-08-18, 01:52:00,VALID,917.46,VALID,0,VALID,98.3408,VALID,0.0339617,VALID,18.6383,VALID,94,VALID,0.466071,
2000-08-18, 01:53:00,VALID,917.432,VALID,0,VALID,98.3993,VALID,0.0169808,VALID,18.6473,VALID,84,VALID,0.56609,
2000-08-18, 01:54:00,VALID,917.408,VALID,0,VALID,98.4196,VALID,0.0679233,VALID,18.6607,VALID,91,VALID,0.599035,
2000-08-18, 01:55:00,VALID,917.404,VALID,0,VALID,98.4006,VALID,0.0169808,VALID,18.6704,VALID,80,VALID,0.666295,
2000-08-18, 01:56:00,VALID,917.389,VALID,0,VALID,98.4336,VALID,0.0169808,VALID,18.6766,VALID,66,VALID,0.45012,
2000-08-18, 01:57:01,VALID,917.389,VALID,0,VALID,98.454,VALID,0.0339617,VALID,18.6928,VALID,51,VALID,0.0867821,
2000-08-18, 01:58:00,VALID,917.358,VALID,0,VALID,98.398,VALID,-0.0509425,VALID,18.6942,VALID,51,VALID,0,
2000-08-18, 01:59:00,VALID,917.329,VALID,0,VALID,98.2505,VALID,-0.0509425,VALID,18.646,VALID,51,VALID,0,
2000-08-18, 02:00:00,VALID,917.32,VALID,0,VALID,97.9987,VALID,-0.0679233,VALID,18.5876,VALID,51,VALID,0,
2000-08-18, 02:01:01,VALID,917.297,VALID,0,VALID,97.8601,VALID,-0.101885,VALID,18.5786,VALID,61,VALID,0.321259,
2000-08-18, 02:02:00,VALID,917.295,VALID,0,VALID,97.9987,VALID,-0.0509425,VALID,18.5779,VALID,94,VALID,0.373047,
2000-08-18, 02:03:00,VALID,917.296,VALID,0,VALID,97.883,VALID,-0.0339617,VALID,18.5362,VALID,101,VALID,0.246299,
2000-08-18, 02:04:00,VALID,917.313,VALID,0,VALID,97.4291,VALID,-0.0679233,VALID,18.4296,VALID,98,VALID,0.0945513,
2000-08-18, 02:05:01,VALID,917.332,VALID,0,VALID,97.5054,VALID,-0.0849042,VALID,18.4102,VALID,79,VALID,0.00976563,
2000-08-18, 02:06:01,VALID,917.343,VALID,0,VALID,97.8779,VALID,-0.0679233,VALID,18.4266,VALID,86,VALID,0.641518,
2000-08-18, 02:07:00,VALID,917.328,VALID,0,VALID,98.2315,VALID,-0.0849042,VALID,18.4586,VALID,86,VALID,0.497466,
2000-08-18, 02:08:00,VALID,917.309,VALID,0,VALID,98.2709,VALID,-0.0339617,VALID,18.4455,VALID,84,VALID,0.450827,
2000-08-18, 02:09:01,VALID,917.282,VALID,0,VALID,98.3929,VALID,-0.0509425,VALID,18.4589,VALID,86,VALID,0.48817,
2000-08-18, 02:10:01,VALID,917.259,VALID,0,VALID,98.4324,VALID,-0.0849042,VALID,18.4556,VALID,85,VALID,0.0927484,
2000-08-18, 02:11:01,VALID,917.258,VALID,0,VALID,98.4642,VALID,-0.0679233,VALID,18.4489,VALID,85,VALID,0,
2000-08-18, 02:12:01,VALID,917.257,VALID,0,VALID,98.5506,VALID,-0.0679233,VALID,18.475,VALID,78,VALID,0.18236,
2000-08-18, 02:13:00,VALID,917.248,VALID,0,VALID,98.5099,VALID,-0.0339617,VALID,18.4582,VALID,84,VALID,0.114063,
2000-08-18, 02:14:01,VALID,917.263,VALID,0,VALID,98.4578,VALID,-0.0169808,VALID,18.4489,VALID,84,VALID,0,
2000-08-18, 02:15:01,VALID,917.271,VALID,0,VALID,98.4133,VALID,-0.0509425,VALID,18.4395,VALID,84,VALID,0.124527,
2000-08-18, 02:16:01,VALID,917.265,VALID,0,VALID,98.3535,VALID,0,VALID,18.3973,VALID,97,VALID,0.383464,
2000-08-18, 02:17:01,VALID,917.266,VALID,0,VALID,98.4413,VALID,-0.0679233,VALID,18.4069,VALID,130,VALID,0.480263,
2000-08-18, 02:18:01,VALID,917.267,VALID,0,VALID,98.4413,VALID,-0.0679233,VALID,18.4007,VALID,121,VALID,0.485777,
2000-08-18, 02:19:01,VALID,917.26,VALID,0,VALID,98.487,VALID,-0.0849042,VALID,18.4074,VALID,109,VALID,0.560156,
2000-08-18, 02:20:01,VALID,917.248,VALID,0,VALID,98.4629,VALID,-0.0339617,VALID,18.391,VALID,92,VALID,0.641071,
2000-08-18, 02:21:01,VALID,917.236,VALID,0,VALID,98.5125,VALID,-0.0849042,VALID,18.3913,VALID,87,VALID,0.797931,
2000-08-18, 02:22:01,VALID,917.215,VALID,0,VALID,98.618,VALID,-0.0509425,VALID,18.4199,VALID,86,VALID,0.94784,
2000-08-18, 02:23:01,VALID,917.202,VALID,0,VALID,98.7058,VALID,-0.0849042,VALID,18.4427,VALID,84,VALID,1.10536,
2000-08-18, 02:24:01,VALID,917.191,VALID,0,VALID,98.7019,VALID,-0.0169808,VALID,18.4494,VALID,83,VALID,0.869191,
2000-08-18, 02:25:01,VALID,917.17,VALID,0,VALID,98.6485,VALID,-0.0509425,VALID,18.4429,VALID,78,VALID,0.742399,
2000-08-18, 02:26:01,VALID,917.165,VALID,0,VALID,98.6854,VALID,-0.101885,VALID,18.4492,VALID,81,VALID,0.839227,
2000-08-18, 02:27:01,VALID,917.153,VALID,0,VALID,98.7312,VALID,-0.101885,VALID,18.472,VALID,73,VALID,0.820759,
2000-08-18, 02:28:01,VALID,917.149,VALID,0,VALID,98.7477,VALID,-0.0339617,VALID,18.4845,VALID,90,VALID,0.867788,
2000-08-18, 02:29:01,VALID,917.132,VALID,0,VALID,98.7388,VALID,0,VALID,18.5002,VALID,101,VALID,0.877841,
2000-08-18, 02:30:01,VALID,917.105,VALID,0,VALID,98.6676,VALID,-0.0509425,VALID,18.5036,VALID,96,VALID,0.418186,
2000-08-18, 02:31:01,VALID,917.095,VALID,0,VALID,98.6307,VALID,0,VALID,18.5105,VALID,115,VALID,0.256168,
2000-08-18, 02:32:01,VALID,917.082,VALID,0,VALID,98.6091,VALID,-0.0169808,VALID,18.5073,VALID,129,VALID,0,
2000-08-18, 02:33:01,VALID,917.079,VALID,0,VALID,98.5964,VALID,0,VALID,18.52,VALID,129,VALID,0,
2000-08-18, 02:34:01,VALID,917.106,VALID,0,VALID,98.4858,VALID,0,VALID,18.4942,VALID,129,VALID,0,
2000-08-18, 02:35:00,VALID,917.104,VALID,0,VALID,98.4247,VALID,-0.0509425,VALID,18.4683,VALID,129,VALID,0,
2000-08-18, 02:36:00,VALID,917.097,VALID,0,VALID,98.3395,VALID,-0.0169808,VALID,18.4489,VALID,129,VALID,0,
2000-08-18, 02:37:00,VALID,917.082,VALID,0,VALID,97.8296,VALID,-0.0169808,VALID,18.3615,VALID,129,VALID,0,
2000-08-18, 02:38:00,VALID,917.079,VALID,0,VALID,97.3668,VALID,0,VALID,18.2907,VALID,114,VALID,0,
2000-08-18, 02:39:00,VALID,917.079,VALID,0,VALID,97.602,VALID,-0.0339617,VALID,18.2577,VALID,111,VALID,0,
2000-08-18, 02:40:00,VALID,917.1,VALID,0,VALID,97.7622,VALID,0,VALID,18.2519,VALID,111,VALID,0,
2000-08-18, 02:41:00,VALID,917.108,VALID,0,VALID,98.0077,VALID,-0.0169808,VALID,18.2521,VALID,111,VALID,0,
2000-08-18, 02:42:00,VALID,917.133,VALID,0,VALID,98.0496,VALID,0,VALID,18.2323,VALID,111,VALID,0,
2000-08-18, 02:43:00,VALID,917.136,VALID,0,VALID,98.0165,VALID,-0.0169808,VALID,18.1998,VALID,111,VALID,0,
2000-08-18, 02:44:00,VALID,917.15,VALID,0,VALID,97.9644,VALID,0,VALID,18.1712,VALID,111,VALID,0,
2000-08-18, 02:45:00,VALID,917.152,VALID,0,VALID,98.0013,VALID,0,VALID,18.152,VALID,111,VALID,0,
2000-08-18, 02:46:00,VALID,917.145,VALID,0,VALID,98.1068,VALID,0,VALID,18.155,VALID,111,VALID,0,
2000-08-18, 02:47:00,VALID,917.138,VALID,0,VALID,98.1819,VALID,0,VALID,18.152,VALID,111,VALID,0,
2000-08-18, 02:48:00,VALID,917.127,VALID,0,VALID,98.1513,VALID,-0.0169808,VALID,18.1227,VALID,111,VALID,0,
2000-08-18, 02:49:00,VALID,917.104,VALID,0,VALID,98.3039,VALID,-0.0509425,VALID,18.119,VALID,111,VALID,0,
2000-08-18, 02:50:00,VALID,917.087,VALID,0,VALID,98.4731,VALID,0,VALID,18.1453,VALID,111,VALID,0,
2000-08-18, 02:51:00,VALID,917.072,VALID,0,VALID,98.4832,VALID,0,VALID,18.1453,VALID,111,VALID,0.0832589,
2000-08-18, 02:52:00,VALID,917.071,VALID,0,VALID,98.5735,VALID,0,VALID,18.1421,VALID,113,VALID,0.577324,
2000-08-18, 02:53:00,VALID,917.058,VALID,0,VALID,98.6918,VALID,0,VALID,18.1679,VALID,116,VALID,0.47234,
2000-08-18, 02:54:00,VALID,917.076,VALID,0,VALID,98.8418,VALID,0,VALID,18.2035,VALID,138,VALID,0.427015,
2000-08-18, 02:55:00,VALID,917.081,VALID,0,VALID,98.9601,VALID,-0.0339617,VALID,18.2455,VALID,149,VALID,0.400223,
2000-08-18, 02:56:00,VALID,917.074,VALID,0,VALID,99.0542,VALID,-0.0169808,VALID,18.2904,VALID,147,VALID,0.415865,
2000-08-18, 02:57:00,VALID,917.079,VALID,0,VALID,98.9842,VALID,-0.0339617,VALID,18.2907,VALID,140,VALID,0,
2000-08-18, 02:58:00,VALID,917.078,VALID,0,VALID,98.8418,VALID,-0.0339617,VALID,18.2521,VALID,119,VALID,0.0015191,
2000-08-18, 02:59:00,VALID,917.067,VALID,0,VALID,98.7274,VALID,-0.0339617,VALID,18.2067,VALID,104,VALID,0.596217,
2000-08-18, 03:00:00,VALID,917.057,VALID,0,VALID,98.7871,VALID,0,VALID,18.2162,VALID,99,VALID,0.47516,
2000-08-18, 03:01:00,VALID,917.057,VALID,0,VALID,98.9321,VALID,0,VALID,18.2974,VALID,93,VALID,0.473242,
2000-08-18, 03:02:00,VALID,917.053,VALID,0,VALID,99.0313,VALID,0,VALID,18.3382,VALID,94,VALID,0.312054,
2000-08-18, 03:03:00,VALID,917.05,VALID,0,VALID,99.0516,VALID,0,VALID,18.3781,VALID,94,VALID,0,
2000-08-18, 03:04:00,VALID,917.054,VALID,0,VALID,99.0313,VALID,0,VALID,18.3876,VALID,94,VALID,0,
2000-08-18, 03:05:00,VALID,917.058,VALID,0,VALID,98.8609,VALID,0,VALID,18.326,VALID,94,VALID,0.021875,
2000-08-18, 03:06:00,VALID,917.057,VALID,0,VALID,98.6015,VALID,0.0169808,VALID,18.242,VALID,94,VALID,0.389623,
2000-08-18, 03:07:00,VALID,917.055,VALID,0,VALID,98.6206,VALID,0,VALID,18.2743,VALID,94,VALID,0.0278716,
2000-08-18, 03:08:00,VALID,917.04,VALID,0,VALID,98.5227,VALID,-0.0169808,VALID,18.2422,VALID,94,VALID,0,
2000-08-18, 03:09:00,VALID,917.048,VALID,0,VALID,98.5697,VALID,0,VALID,18.2454,VALID,94,VALID,0,
2000-08-18, 03:10:00,VALID,917.035,VALID,0,VALID,98.7032,VALID,-0.0169808,VALID,18.2844,VALID,94,VALID,0,
2000-08-18, 03:11:00,VALID,917.024,VALID,0,VALID,98.8202,VALID,-0.0169808,VALID,18.3361,VALID,78,VALID,0,
2000-08-18, 03:12:00,VALID,916.984,VALID,0,VALID,98.8266,VALID,-0.0169808,VALID,18.3389,VALID,74,VALID,0,
2000-08-18, 03:13:00,VALID,916.955,VALID,0,VALID,98.6663,VALID,-0.0679233,VALID,18.2941,VALID,85,VALID,0,
2000-08-18, 03:14:00,VALID,916.937,VALID,0,VALID,98.4934,VALID,-0.0339617,VALID,18.2554,VALID,87,VALID,0,
2000-08-18, 03:15:00,VALID,916.93,VALID,0,VALID,98.735,VALID,0,VALID,18.3453,VALID,87,VALID,0,
2000-08-18, 03:16:00,VALID,916.9,VALID,0,VALID,98.8914,VALID,0,VALID,18.4298,VALID,87,VALID,0,
2000-08-18, 03:17:00,VALID,916.875,VALID,0,VALID,98.9181,VALID,0,VALID,18.4323,VALID,87,VALID,0,
2000-08-18, 03:18:00,VALID,916.866,VALID,0,VALID,98.59,VALID,0,VALID,18.3297,VALID,88,VALID,0,
2000-08-18, 03:19:00,VALID,916.848,VALID,0,VALID,98.5366,VALID,0,VALID,18.2775,VALID,88,VALID,0,
2000-08-18, 03:20:00,VALID,916.838,VALID,0,VALID,98.6956,VALID,0,VALID,18.3329,VALID,88,VALID,0,
2000-08-18, 03:21:00,VALID,916.813,VALID,0,VALID,98.688,VALID,0,VALID,18.3391,VALID,89,VALID,0,
2000-08-18, 03:22:00,VALID,916.802,VALID,0,VALID,98.4438,VALID,0,VALID,18.2609,VALID,106,VALID,0,
2000-08-18, 03:23:00,VALID,916.782,VALID,0,VALID,98.5366,VALID,0,VALID,18.2676,VALID,104,VALID,0.779911,
2000-08-18, 03:24:00,VALID,916.768,VALID,0,VALID,98.6969,VALID,0,VALID,18.3327,VALID,101,VALID,0.872396,
2000-08-18, 03:25:00,VALID,916.762,VALID,0,VALID,98.7274,VALID,0,VALID,18.355,VALID,100,VALID,1.17874,
2000-08-18, 03:26:00,VALID,916.788,VALID,0,VALID,98.6282,VALID,0,VALID,18.3684,VALID,99,VALID,0.820095,
2000-08-18, 03:27:00,VALID,916.813,VALID,0,VALID,98.4476,VALID,0,VALID,18.3456,VALID,96,VALID,0.616982,
2000-08-18, 03:28:00,VALID,916.829,VALID,0,VALID,98.4578,VALID,-0.0169808,VALID,18.3749,VALID,73,VALID,0.592548,
2000-08-18, 03:29:00,VALID,916.831,VALID,0,VALID,98.398,VALID,-0.0339617,VALID,18.3783,VALID,81,VALID,0.435937,
2000-08-18, 03:30:00,VALID,916.835,VALID,0,VALID,98.2404,VALID,0,VALID,18.3525,VALID,86,VALID,0.497768,
2000-08-18, 03:31:00,VALID,916.824,VALID,0,VALID,98.0839,VALID,-0.0679233,VALID,18.32,VALID,86,VALID,0.469806,
2000-08-18, 03:32:00,VALID,916.818,VALID,0,VALID,98.0623,VALID,-0.0339617,VALID,18.3204,VALID,59,VALID,0.513557,
2000-08-18, 03:33:00,VALID,916.814,VALID,0,VALID,98.2009,VALID,-0.101885,VALID,18.3435,VALID,38,VALID,0.389286,
2000-08-18, 03:34:00,VALID,916.804,VALID,0,VALID,98.2772,VALID,-0.0509425,VALID,18.356,VALID,12,VALID,0.0152244,
2000-08-18, 03:35:00,VALID,916.806,VALID,0,VALID,98.1857,VALID,-0.0849042,VALID,18.343,VALID,9,VALID,0.127534,
2000-08-18, 03:36:00,VALID,916.788,VALID,0,VALID,98.2493,VALID,-0.101885,VALID,18.3527,VALID,35,VALID,0.267064,
2000-08-18, 03:37:00,VALID,916.767,VALID,0,VALID,98.1615,VALID,-0.101885,VALID,18.343,VALID,63,VALID,0.298214,